Main page
Satellite images Climate Cyclones Lightning AirportsFAQ Languages Contact Newsletter About
Weather : Europe Africa North America South America Asia Australia-Oceania Others

4479, Mandalay, Mandalay International Airport

48042

latitude: , longitude: Burma, elevation: 21-59N m


METAR: VYMD 180730Z 36007KT 8000 FEW025 32/22 Q1009